Weather History for Fort Knox, KY

Change the Weather History Date:

Friday, September 13, 2013

  Actual Average Record
Temperature  
Mean Temperature 63 °F -  
Max Temperature 71 °F 78 °F 93 °F (1998)
Min Temperature 52 °F 56 °F 49 °F (2014)
Degree Days  
Heating Degree Days 2    
Growing Degree Days 13 (Base 50)    
Moisture  
Dew Point 53 °F    
Average Humidity 71    
Maximum Humidity 91    
Minimum Humidity 43    
Precipitation  
Precipitation 0.00 in - - ()
Sea Level Pressure  
Sea Level Pressure 30.02 in    
Wind  
Wind Speed 7 mph (North)    
Max Wind Speed 16 mph    
Max Gust Speed 24 mph    
Visibility 10 miles    
Events Rain    
Averages and records for this station are not official NWS values.
T = Trace of Precipitation, MM = Missing Value Source: NWS Daily Summary

Daily Weather History Graph

Daily Weather History Graph

Search for Another Location

Airport:

Trip Planner

Search our weather history database for the weather conditions in past years. The results will help you decide how hot, cold, wet, or windy it might be!

Date:

Astronomy

Sep. 13, 2013 Rise Set
Actual Time 7:24 AM EDT 7:54 PM EDT
Civil Twilight 6:57 AM EDT 8:20 PM EDT
Nautical Twilight 6:26 AM EDT 8:51 PM EDT
Astronomical Twilight 5:54 AM EDT 9:23 PM EDT
Moon 3:39 PM EDT (9/13) 12:57 AM EDT (9/13)
Length of Visible Light 13h 23m
Length of Day
12h 30m
First Quarter, 61% of the Moon is Illuminated
Sep 13
First Quarter
Sep 19
Full
Sep 26
Last Quarter
Oct 4
New
Oct 11
First Quarter

Hourly Weather History & Observations

Time (EDT) Temp. Dew Point Humidity Pressure Visibility Wind Dir Wind Speed Gust Speed Precip Events Conditions
12:46 AM 68.0 °F 64.4 °F 88% 29.96 in 10.0 mi NNW 5.8 mph - N/A Rain Light Rain
12:58 AM 67.1 °F 63.7 °F 89% 29.95 in 10.0 mi NW 5.8 mph - 0.00 in Rain Light Rain
1:04 AM 66.2 °F 62.6 °F 88% 29.96 in 10.0 mi NW 5.8 mph - N/A   Clear
1:58 AM 64.2 °F 60.6 °F 88% 29.96 in 10.0 mi NNW 5.8 mph - 0.00 in   Clear
2:58 AM 63.7 °F 58.5 °F 83% 29.97 in 10.0 mi NNW 8.1 mph - N/A   Clear
3:58 AM 62.1 °F 57.0 °F 84% 29.96 in 10.0 mi NNW 6.9 mph - N/A   Clear
4:58 AM 60.4 °F 55.9 °F 85% 29.98 in 10.0 mi North 5.8 mph - N/A   Clear
5:58 AM 59.5 °F 55.6 °F 87% 29.99 in 10.0 mi NNE 2.3 mph - N/A   Clear
6:58 AM 57.9 °F 55.2 °F 91% 30.01 in 10.0 mi NNE 4.6 mph - N/A   Clear
7:58 AM 58.6 °F 55.6 °F 90% 30.04 in 10.0 mi NNE 4.6 mph - N/A   Clear
8:58 AM 61.3 °F 56.5 °F 84% 30.05 in 10.0 mi NNE 10.4 mph - N/A   Clear
9:58 AM 64.2 °F 55.4 °F 73% 30.05 in 10.0 mi North 9.2 mph - N/A   Partly Cloudy
10:58 AM 66.4 °F 52.0 °F 60% 30.06 in 10.0 mi NNE 13.8 mph - N/A   Partly Cloudy
11:58 AM 67.3 °F 52.3 °F 59% 30.07 in 10.0 mi North 8.1 mph 19.6 mph N/A   Scattered Clouds
12:58 PM 67.8 °F 51.1 °F 55% 30.05 in 10.0 mi North 6.9 mph - N/A   Mostly Cloudy
1:58 PM 69.1 °F 50.5 °F 52% 30.04 in 10.0 mi North 10.4 mph - N/A   Partly Cloudy
2:58 PM 69.1 °F 47.1 °F 45% 30.02 in 10.0 mi North 12.7 mph 18.4 mph N/A   Scattered Clouds
3:49 PM 71.6 °F 48.2 °F 43% 30.01 in 10.0 mi NNW 16.1 mph 24.2 mph N/A   Mostly Cloudy
3:58 PM 71.1 °F 48.6 °F 45% 30.01 in 10.0 mi North 11.5 mph 24.2 mph N/A   Mostly Cloudy
4:58 PM 70.2 °F 47.7 °F 45% 30.02 in 10.0 mi North 11.5 mph - N/A   Scattered Clouds
5:58 PM 68.9 °F 47.8 °F 47% 30.02 in 10.0 mi North 12.7 mph - N/A   Partly Cloudy
6:58 PM 65.8 °F 47.8 °F 52% 30.03 in 10.0 mi North 8.1 mph - N/A   Clear
7:58 PM 59.9 °F 49.5 °F 68% 30.04 in 10.0 mi North 3.5 mph - N/A   Clear
8:58 PM 56.7 °F 49.6 °F 77% 30.06 in 10.0 mi NNW 4.6 mph - N/A   Clear
9:58 PM 56.5 °F 46.8 °F 70% 30.06 in 5.0 mi North 3.5 mph - N/A   Haze
10:58 PM 55.8 °F 46.8 °F 72% 30.07 in 10.0 mi NNE 3.5 mph - N/A   Clear
11:58 PM 52.3 °F 47.8 °F 85% 30.07 in 10.0 mi North 4.6 mph - N/A   Clear